Bluefield, WV

11:59 PM EDT on April 25, 2018 (GMT -0400)
Mercer County

Weather History for KBLF - December, 2012

Change the Weather History Date:

Saturday, December 22, 2012

  Actual Average Record
Temperature  
Mean Temperature 28 °F 36 °F  
Max Temperature 32 °F 43 °F 69 °F (1990)
Min Temperature 24 °F 28 °F -11 °F (1989)
Degree Days  
Heating Degree Days 37 29  
Month to date heating degree days 413 590  
Since 1 July heating degree days 1485 1493  
Cooling Degree Days 0 0  
Month to date cooling degree days 0 0  
Year to date cooling degree days 1007 853  
Moisture  
Dew Point 18 °F    
Average Humidity 65    
Maximum Humidity 81    
Minimum Humidity 49    
Precipitation  
Precipitation 0.04 in 0.09 in 0.94 in (2011)
Month to date precipitation 2.24 2.10  
Year to date precipitation 42.62 38.82  
Snow  
Snow 0.60 in - - ()
Month to date snowfall 5.3  
Since 1 July snowfall 14.9  
Snow Depth 4.00 in    
Sea Level Pressure  
Sea Level Pressure 30.03 in    
Wind  
Wind Speed 13 mph (WNW)    
Max Wind Speed 28 mph    
Max Gust Speed 44 mph    
Visibility 6 miles    
Events Snow    
T = Trace of Precipitation, MM = Missing Value Source: NWS Daily Summary

Daily Weather History Graph

Daily Weather History Graph

Search for Another Location

Airport or City:

Astronomy

Dec. 22, 2012 Rise Set
Actual Time 7:35 AM EST 5:11 PM EST
Civil Twilight 7:06 AM EST 5:40 PM EST
Nautical Twilight 6:34 AM EST 6:13 PM EST
Astronomical Twilight 6:02 AM EST 6:45 PM EST
Moon 1:24 PM EST (12/22) 2:23 AM EST (12/22)
Length of Visible Light 10h 34m
Length of Day
9h 35m
Waxing Gibbous, 73% of the Moon is Illuminated
Dec 22
Waxing Gibbous
Dec 28
Full
Jan 4
Last Quarter
Jan 11
New
Jan 18
First Quarter

Hourly Weather History & Observations

Time (EST) Temp. Windchill Dew Point Humidity Pressure Visibility Wind Dir Wind Speed Gust Speed Precip Events Conditions
12:26 AM 24.8 °F 10.0 °F 19.4 °F 80% 29.81 in 2.0 mi WNW 21.9 mph 40.3 mph 0.00 in Snow Light Snow
12:41 AM 24.8 °F 10.3 °F 19.4 °F 80% 29.82 in 1.8 mi NW 20.7 mph 31.1 mph 0.00 in Snow Light Snow
12:48 AM 24.8 °F 10.3 °F 19.4 °F 80% 29.82 in 2.0 mi WNW 20.7 mph 34.5 mph 0.00 in Snow Light Snow
12:52 AM 25.0 °F 10.9 °F 19.0 °F 78% 29.90 in 2.5 mi WNW 19.6 mph 34.5 mph 0.00 in Snow Light Snow
12:59 AM 24.8 °F 11.9 °F 19.4 °F 80% 29.82 in 4.0 mi WNW 16.1 mph 35.7 mph 0.00 in Snow Light Snow
1:36 AM 24.8 °F 10.7 °F 19.4 °F 80% 29.83 in 2.5 mi West 19.6 mph 34.5 mph 0.00 in Snow Light Snow
1:52 AM 24.1 °F 9.4 °F 19.0 °F 81% 29.91 in 2.0 mi West 20.7 mph 26.5 mph 0.00 in Snow Light Snow
2:00 AM 24.8 °F 11.1 °F 19.4 °F 80% 29.84 in 1.5 mi West 18.4 mph 29.9 mph 0.00 in Snow Light Snow
2:41 AM 24.8 °F 10.7 °F 19.4 °F 80% 29.86 in 2.5 mi WNW 19.6 mph 28.8 mph 0.00 in Snow Light Snow
2:52 AM 24.1 °F 9.0 °F 19.0 °F 81% 29.94 in 2.0 mi WNW 21.9 mph 34.5 mph 0.00 in Snow Light Snow
3:31 AM 24.8 °F 10.3 °F 19.4 °F 80% 29.89 in 1.8 mi WNW 20.7 mph 38.0 mph 0.01 in Snow Light Snow
4:23 AM 24.8 °F 11.9 °F 19.4 °F 80% 29.91 in 2.0 mi West 16.1 mph 35.7 mph 0.00 in Snow Light Snow
4:52 AM 24.1 °F 10.1 °F 18.0 °F 77% 30.00 in 2.0 mi WNW 18.4 mph 40.3 mph 0.00 in Snow Light Snow
5:47 AM 24.8 °F 12.4 °F 19.4 °F 80% 29.96 in 3.0 mi WNW 15.0 mph 31.1 mph 0.00 in Snow Light Snow
5:52 AM 24.1 °F 12.0 °F 18.0 °F 77% 30.04 in 4.0 mi WNW 13.8 mph 25.3 mph 0.00 in Snow Light Snow
6:52 AM 24.1 °F 11.5 °F 18.0 °F 77% 30.08 in 5.0 mi WNW 15.0 mph 25.3 mph 0.00 in Snow Light Snow
7:52 AM 24.1 °F 14.4 °F 18.0 °F 77% 30.12 in 6.0 mi WNW 9.2 mph 20.7 mph 0.00 in Snow Light Snow
8:52 AM 24.1 °F 12.0 °F 18.0 °F 77% 30.16 in 3.0 mi WNW 13.8 mph 27.6 mph 0.00 in Snow Light Snow
9:52 AM 24.1 °F 11.5 °F 17.1 °F 75% 30.17 in 5.0 mi WNW 15.0 mph 26.5 mph 0.00 in Snow Light Snow
10:52 AM 24.1 °F 12.0 °F 16.0 °F 71% 30.19 in 10.0 mi West 13.8 mph 26.5 mph 0.00 in   Overcast
11:52 AM 28.0 °F 17.0 °F 17.1 °F 63% 30.16 in 10.0 mi West 13.8 mph 18.4 mph N/A   Mostly Cloudy
12:27 PM 28.4 °F 16.6 °F 17.6 °F 64% 30.07 in 10.0 mi West 16.1 mph 23.0 mph N/A   Partly Cloudy
12:52 PM 28.9 °F 18.2 °F 16.0 °F 58% 30.13 in 10.0 mi WNW 13.8 mph 25.3 mph N/A   Partly Cloudy
1:52 PM 30.9 °F 22.2 °F 17.1 °F 57% 30.11 in 10.0 mi WNW 10.4 mph - N/A   Clear
2:52 PM 32.0 °F 24.2 °F 17.1 °F 54% 30.10 in 10.0 mi West 9.2 mph 18.4 mph N/A   Clear
3:52 PM 32.0 °F 21.2 °F 16.0 °F 52% 30.11 in 10.0 mi West 16.1 mph 23.0 mph N/A   Clear
4:52 PM 30.9 °F 23.5 °F 17.1 °F 57% 30.14 in 10.0 mi West 8.1 mph - N/A   Clear
5:52 PM 28.9 °F 22.8 °F 17.1 °F 61% 30.15 in 10.0 mi West 5.8 mph - N/A   Clear
6:52 PM 28.0 °F 19.3 °F 17.1 °F 63% 30.15 in 10.0 mi West 9.2 mph - N/A   Clear
7:52 PM 27.0 °F 19.5 °F 16.0 °F 63% 30.15 in 10.0 mi West 6.9 mph - N/A   Clear
8:52 PM 27.0 °F 18.0 °F 16.0 °F 63% 30.15 in 10.0 mi West 9.2 mph - N/A   Clear
9:52 PM 27.0 °F 18.7 °F 15.1 °F 61% 30.14 in 10.0 mi West 8.1 mph - N/A   Clear
10:52 PM 26.1 °F 18.4 °F 15.1 °F 63% 30.15 in 10.0 mi West 6.9 mph - N/A   Clear
11:52 PM 26.1 °F 18.4 °F 16.0 °F 66% 30.13 in 10.0 mi West 6.9 mph - N/A   Clear